Location: Tel Aviv
(32.0670°N, 34.7670°E)
Time: 19:06:52
(UTC+03:00)

Vanguard 2 Rocket - Pass Details

Date: 01 February 2022
Orbit: 553 x 3323 km, 32.9° (Epoch: 24 May)

Event Time Altitude Azimuth Distance (km) Brightness Sun altitude
Exits shadow 03:01:47 84° 271° (W) 3,015 9.1 -45.3°
Maximum altitude 03:02:42 89° 192° (SSW) 3,040 9.2 -45.1°
Drops below altitude 10° 03:23:28 10° 104° (ESE) 6,228 11.7 -40.7°
Sets 03:28:05 0° 104° (ESE) 7,133 12.3 -39.7°
